Wind_Speed
9 9 8 7 7 7 8 9 11 12 13 13 12 13 12 11 10 8 6 6 5 6 7 8 9 9 8 6 6 5 4 3 2 1 2 3 4 5 6 7 8 8 9 9 9 9 9 8 7
9 9 8 8 8 8 9 10 11 12 13 14 14 14 13 12 12 10 8 6 6 7 8 9 10 9 8 7 6 5 4 3 2 0 2 3 4 5 6 7 8 8 9 9 9 9 9 8 8
10 9 8 8 8 9 9 10 11 13 13 14 14 14 14 13 13 11 9 6 6 7 8 10 11 10 9 8 6 5 5 4 2 1 2 3 4 6 7 7 8 9 9 10 10 9 9 8 7
10 9 9 9 9 9 10 11 11 12 13 14 15 14 14 14 13 11 10 7 6 7 8 10 11 11 10 9 7 6 5 4 3 2 2 4 5 6 7 8 8 9 9 10 10 9 9 8 7
10 10 9 9 9 10 11 11 12 13 14 15 15 14 14 14 13 12 10 7 7 8 9 11 12 11 11 10 8 7 6 5 4 3 3 4 6 7 8 8 9 9 10 10 10 9 9 8 7
11 11 10 10 10 11 11 12 12 14 15 16 15 14 15 15 13 11 10 9 8 9 10 12 13 12 11 10 9 8 7 6 4 3 4 5 6 7 8 9 9 10 10 10 9 9 9 8 7
11 11 11 11 11 11 11 12 12 14 15 17 16 15 16 15 13 12 10 9 8 9 11 13 14 14 13 11 10 10 9 7 5 4 5 5 6 8 9 9 10 10 10 9 9 9 8 8 7
12 12 12 12 12 11 11 12 13 14 16 17 17 16 16 15 13 12 12 10 9 9 12 14 15 15 14 13 12 11 9 8 6 6 6 6 7 8 9 9 10 10 10 9 9 8 7 7 7
13 12 13 13 12 12 11 12 13 14 15 16 17 17 17 16 14 14 13 11 10 10 12 14 15 14 15 14 13 12 10 9 8 7 7 7 7 8 9 9 9 10 9 9 8 7 7 6 6
14 14 13 13 12 12 11 11 12 13 15 16 17 17 18 17 16 15 14 12 11 11 11 14 15 15 15 15 14 13 11 10 9 8 7 8 8 9 8 9 9 9 9 8 7 6 6 5 4
13 13 13 13 12 11 11 11 12 13 14 16 17 18 18 18 17 17 16 14 12 12 13 14 16 16 16 17 16 14 12 11 10 9 8 9 9 8 8 8 8 8 8 7 6 5 5 4 4
13 13 12 12 11 11 10 11 12 13 14 15 17 19 19 19 18 17 17 15 14 13 13 15 17 18 17 18 17 15 14 13 11 11 10 10 9 8 8 7 7 6 6 6 5 5 4 3 3
11 12 11 10 10 10 10 11 12 14 15 15 17 19 20 19 19 17 16 15 14 13 14 16 17 18 18 19 18 16 15 14 12 11 10 10 9 8 7 7 6 6 6 5 4 4 3 2 2
11 10 9 9 10 10 10 11 13 14 15 16 17 19 19 19 18 18 15 13 11 11 13 16 17 18 20 21 20 17 16 14 12 11 9 8 8 7 7 6 5 5 4 4 3 3 2 2 2
11 10 9 10 10 10 11 11 13 14 16 17 18 19 19 19 19 17 15 12 10 9 12 15 17 18 19 20 20 18 16 15 13 11 10 8 8 7 6 5 4 3 3 2 2 2 2 2 2
12 12 11 11 12 12 13 12 13 15 16 18 20 21 20 20 19 16 13 10 8 8 12 15 16 18 19 19 19 19 17 15 14 13 11 9 8 7 6 4 3 3 2 1 1 1 2 2 2
14 14 14 14 14 14 14 14 15 16 17 19 20 21 20 19 18 14 11 8 6 8 11 14 15 16 19 19 19 19 17 16 14 13 12 10 9 7 6 5 4 2 1 0 1 1 2 2 2
16 15 15 16 16 16 14 15 16 17 18 19 20 20 20 18 17 12 9 7 5 7 11 13 15 17 18 19 19 19 17 16 14 13 12 11 9 8 7 6 4 3 2 1 0 1 1 1 2
17 17 16 17 17 16 15 15 16 17 19 19 18 19 18 18 16 12 8 6 6 7 10 13 15 17 18 19 18 18 17 16 14 13 12 11 10 9 8 7 5 3 2 1 0 0 1 1 1
18 18 18 18 18 17 15 16 17 18 18 17 17 17 18 18 15 11 7 5 5 7 9 14 17 17 17 19 19 18 17 16 15 14 13 12 11 9 8 8 6 4 3 2 1 1 0 0 1
19 19 18 18 19 18 16 15 17 18 17 17 17 17 18 17 14 11 7 5 6 8 10 13 17 18 18 20 20 18 17 17 17 15 14 13 11 10 10 8 7 5 4 3 2 1 0 0 0
19 20 20 19 19 17 16 16 16 18 17 17 16 15 15 14 12 10 7 5 5 7 10 13 16 18 20 20 20 19 17 17 16 16 15 14 12 11 11 9 8 6 5 4 3 2 1 0 0
20 21 21 19 19 17 16 16 15 17 17 15 14 12 13 12 10 8 6 4 4 6 9 12 16 18 20 20 20 19 18 17 17 16 15 15 14 12 11 10 9 7 6 5 4 3 2 2 1
20 20 20 20 19 17 15 15 14 15 15 13 10 10 11 11 9 7 5 3 3 5 8 11 15 17 18 19 19 19 18 18 17 16 16 16 15 13 12 11 10 9 8 7 6 5 4 3 3
20 20 20 20 18 16 14 14 13 14 13 11 9 9 10 9 7 6 5 4 3 4 7 11 13 15 17 18 19 19 18 18 18 17 17 16 15 14 13 12 12 11 10 9 8 7 6 6 6
21 21 21 20 19 17 15 12 12 12 11 10 9 8 9 8 7 6 5 3 3 4 6 8 12 13 15 16 18 18 18 18 17 17 17 16 16 15 14 14 13 13 12 11 10 10 9 9 9
21 22 22 21 20 18 15 11 10 12 11 10 9 9 8 8 7 6 5 3 2 3 6 9 10 12 13 15 16 17 17 17 17 17 17 16 16 16 15 15 15 15 15 14 13 13 12 13 13
22 23 23 23 22 20 15 11 10 11 11 10 9 9 9 8 7 6 5 4 2 2 4 7 10 11 11 12 14 15 16 17 17 17 17 17 17 16 16 17 17 17 17 16 16 16 16 16 16
23 23 23 24 24 22 18 12 10 11 11 9 9 9 9 9 8 7 6 4 3 2 4 6 8 10 10 11 12 14 15 16 17 18 17 17 17 18 18 18 18 19 19 19 19 20 20 20 20
26 26 25 25 23 23 21 14 12 12 12 11 10 10 10 10 9 8 7 6 5 4 4 5 6 8 10 11 12 14 15 16 17 18 18 18 18 18 19 19 20 20 21 22 22 23 23 23 24
Wind_Direction
350 347 343 342 344 343 350 355 356 3 8 11 11 4 357 357 354 341 316 288 253 237 231 231 224 212 204 194 179 163 148 135 112 56 18 4 358 355 351 349 348 349 352 353 354 356 359 1 1
342 340 336 334 337 337 344 350 356 4 9 7 4 357 353 350 348 340 322 293 253 236 232 233 223 214 209 203 190 174 163 157 152 18 345 345 344 342 342 343 343 344 346 348 348 350 353 357 359
335 333 330 327 328 332 336 345 353 359 3 4 1 355 353 347 342 339 323 298 258 239 234 233 223 218 214 209 199 187 180 176 184 254 308 326 331 333 334 335 337 339 341 342 344 344 347 350 351
327 323 324 324 325 329 333 340 351 358 360 1 357 353 350 345 341 336 324 299 264 244 234 233 226 219 214 207 203 197 195 198 210 252 298 320 325 327 329 330 331 333 335 337 340 340 341 343 342
320 316 318 319 317 324 330 338 352 358 359 357 353 348 342 337 333 330 324 301 269 247 236 231 221 217 212 207 206 203 205 211 224 254 293 316 319 320 323 325 324 326 327 331 335 334 335 334 333
312 313 311 311 315 322 328 339 346 354 355 353 349 343 338 331 326 320 315 298 273 250 235 224 218 216 212 208 206 207 211 217 226 250 282 301 308 312 316 320 319 320 323 327 331 333 332 329 326
307 308 305 309 315 320 328 336 344 350 349 346 342 338 335 332 326 319 312 294 271 250 234 221 214 213 211 207 206 211 216 220 227 248 274 288 299 305 309 314 317 319 320 322 326 329 330 326 321
305 303 303 307 312 320 328 333 340 342 342 338 337 336 334 332 325 320 313 295 272 250 227 216 212 211 209 206 208 212 216 223 231 246 264 278 293 301 305 311 313 317 317 316 320 324 324 321 319
306 300 303 306 307 315 325 332 339 340 336 335 336 336 334 330 326 318 311 295 274 252 228 219 218 215 211 207 207 211 217 223 232 245 259 271 285 296 302 309 313 315 317 315 316 319 319 318 318
307 302 305 305 307 315 325 331 334 336 334 333 333 332 332 327 322 316 307 291 272 252 236 223 219 216 213 209 208 210 217 225 235 247 259 270 281 289 298 306 310 314 316 316 317 317 317 314 312
310 303 304 301 303 311 324 332 331 332 334 333 332 330 330 326 319 316 305 287 272 256 239 226 220 216 213 211 209 211 218 228 235 246 259 269 276 282 291 299 305 309 316 320 320 318 315 312 311
309 307 305 300 302 306 318 327 330 328 328 329 331 330 328 322 317 311 304 285 270 259 237 226 218 216 213 214 210 213 221 228 236 247 256 263 267 274 282 290 301 307 313 319 318 316 318 317 316
302 303 306 302 298 301 312 323 327 326 324 324 326 327 326 321 316 306 299 289 270 258 236 223 216 214 211 211 211 215 222 230 238 243 252 255 258 265 274 284 295 299 303 312 321 324 322 323 320
294 292 291 286 288 296 308 321 323 325 327 326 326 324 324 326 318 310 302 295 278 254 232 220 213 210 210 209 212 215 219 224 231 237 243 245 250 256 265 277 287 290 300 316 330 340 350 1 345
282 276 272 276 279 289 305 318 317 317 321 324 325 327 326 326 324 316 306 296 275 249 222 212 208 208 207 207 210 212 215 220 226 231 235 238 245 250 252 267 277 286 299 317 333 360 23 28 24
271 265 261 270 271 288 302 312 316 317 322 326 326 328 328 324 325 319 305 292 264 241 220 209 202 205 209 208 207 212 215 219 225 229 228 232 237 238 241 251 261 265 286 303 11 45 38 36 45
265 261 264 266 275 287 299 309 315 318 323 323 325 328 329 327 323 319 308 291 257 228 207 202 199 205 207 207 209 211 214 217 219 220 224 224 225 227 231 236 239 237 237 207 55 37 36 46 53
262 263 266 271 280 287 296 309 317 320 321 321 323 326 330 330 328 318 307 282 253 223 205 203 204 208 208 208 206 208 211 211 211 214 218 217 217 219 221 223 218 215 223 245 318 20 46 44 48
262 265 266 272 281 287 298 311 318 320 319 319 321 326 330 331 328 322 307 272 249 220 209 208 206 204 204 202 200 202 205 206 209 211 212 211 212 214 214 214 212 210 216 215 198 72 55 58 58
260 264 268 272 280 288 300 311 316 317 319 319 320 323 326 328 326 321 313 288 242 218 214 212 206 202 199 197 196 198 201 204 207 209 209 211 214 212 209 211 209 202 201 199 187 155 123 62 53
260 266 270 274 281 291 300 311 316 319 318 318 319 321 322 322 321 320 311 296 240 220 216 210 205 200 197 195 196 200 203 205 208 209 209 208 209 210 208 210 208 204 204 202 188 172 170 119 76
255 262 268 274 283 291 303 312 318 322 322 318 317 318 318 322 322 317 303 289 247 225 213 206 202 199 197 196 198 201 204 207 209 210 209 206 206 208 207 207 208 206 206 203 192 189 216 258 296
255 260 267 275 282 290 301 309 322 322 322 321 317 319 319 319 321 321 311 280 232 214 206 205 198 199 201 200 201 202 203 207 207 209 208 207 206 208 210 211 211 211 213 213 209 214 233 256 280
255 259 267 273 280 287 299 307 321 324 326 325 322 322 325 322 319 319 316 286 230 206 202 199 194 196 197 201 202 201 203 206 205 206 208 208 210 212 216 219 219 219 221 222 224 229 237 252 267
252 257 264 270 275 284 294 305 320 323 326 326 328 330 330 327 322 323 324 292 247 213 200 197 195 194 198 202 202 204 206 208 208 209 208 211 215 219 222 225 226 227 228 229 234 242 249 258 265
245 251 259 267 271 276 284 299 317 320 324 322 318 318 326 327 323 322 323 309 244 219 203 193 193 194 198 204 208 210 209 210 211 213 214 216 220 223 227 228 229 232 233 236 242 248 255 260 265
240 245 254 263 270 274 279 289 305 309 314 312 311 309 313 316 314 310 318 314 269 223 204 195 194 195 198 203 207 212 213 213 214 217 220 222 225 229 231 233 233 234 237 242 247 252 257 262 266
240 243 248 257 266 271 275 283 300 302 301 298 300 302 303 305 304 299 297 296 289 218 203 200 199 199 202 207 209 212 214 217 219 221 224 227 230 232 236 238 238 240 243 247 251 256 259 263 266
241 243 248 254 261 268 274 280 292 298 297 292 292 298 301 299 295 287 277 268 258 233 210 200 200 205 210 214 214 216 218 222 225 227 227 232 235 237 241 242 244 246 249 252 256 260 262 264 266
242 245 249 254 260 266 271 278 282 288 289 285 284 289 294 292 284 273 264 260 251 240 224 211 206 212 216 217 219 224 228 231 232 232 235 239 243 244 245 247 249 252 255 258 260 262 263 265 267
Height
5884 5883 5883 5883 5883 5883 5881 5881 5879 5878 5877 5877 5875 5874 5874 5874 5874 5876 5874 5872 5873 5873 5874 5875 5876 5878 5879 5879 5880 5881 5882 5884 5885 5886 5887 5887 5887 5888 5888 5888 5888 5888 5888 5888 5887 5887 5887 5887 5887
5884 5883 5884 5883 5883 5882 5882 5881 5879 5878 5877 5876 5875 5873 5872 5872 5872 5872 5871 5871 5871 5872 5873 5874 5875 5876 5878 5879 5880 5881 5882 5883 5884 5885 5886 5887 5887 5887 5887 5887 5887 5888 5887 5887 5887 5887 5887 5887 5887
5884 5883 5884 5883 5882 5882 5881 5880 5879 5877 5876 5875 5874 5872 5871 5870 5870 5870 5870 5869 5870 5870 5871 5873 5874 5875 5876 5878 5879 5880 5881 5882 5883 5884 5885 5886 5886 5886 5887 5887 5887 5887 5887 5887 5887 5887 5887 5887 5887
5884 5884 5884 5883 5882 5881 5881 5880 5878 5876 5875 5874 5873 5871 5870 5869 5869 5868 5868 5868 5868 5869 5870 5871 5872 5874 5875 5876 5878 5879 5880 5881 5882 5883 5884 5885 5885 5886 5886 5886 5886 5886 5886 5887 5887 5886 5887 5886 5886
5884 5883 5883 5882 5881 5881 5880 5879 5877 5876 5874 5873 5872 5870 5869 5868 5867 5867 5866 5867 5867 5867 5868 5870 5871 5872 5874 5875 5877 5878 5880 5881 5882 5883 5884 5884 5885 5885 5885 5885 5885 5886 5886 5886 5886 5886 5886 5886 5886
5883 5883 5882 5881 5881 5880 5879 5877 5876 5874 5873 5872 5871 5869 5868 5866 5865 5865 5865 5865 5865 5865 5866 5867 5869 5870 5872 5874 5876 5877 5879 5880 5881 5882 5883 5883 5884 5884 5884 5884 5884 5885 5885 5885 5885 5885 5885 5885 5885
5883 5882 5881 5880 5880 5879 5878 5876 5875 5873 5872 5871 5869 5868 5866 5865 5863 5863 5863 5862 5862 5863 5863 5865 5867 5868 5870 5872 5874 5876 5878 5879 5880 5881 5882 5883 5883 5883 5883 5883 5883 5883 5884 5884 5884 5885 5884 5884 5884
5882 5882 5880 5879 5879 5878 5877 5875 5873 5872 5871 5870 5868 5867 5865 5863 5862 5861 5860 5860 5860 5860 5860 5862 5864 5866 5868 5870 5873 5874 5876 5878 5879 5880 5881 5882 5882 5882 5882 5882 5882 5882 5882 5883 5883 5883 5883 5883 5883
5881 5881 5879 5878 5877 5877 5876 5874 5873 5871 5870 5868 5867 5865 5863 5861 5859 5858 5858 5857 5858 5858 5858 5860 5862 5864 5866 5869 5871 5873 5875 5876 5878 5879 5880 5881 5881 5881 5881 5881 5881 5881 5881 5882 5882 5882 5882 5882 5882
5880 5879 5878 5878 5876 5876 5874 5873 5871 5870 5868 5866 5865 5863 5860 5858 5857 5855 5855 5854 5855 5855 5856 5857 5859 5862 5864 5867 5869 5871 5873 5875 5876 5878 5879 5879 5880 5880 5880 5880 5880 5880 5880 5881 5881 5881 5881 5881 5881
5878 5878 5877 5876 5875 5874 5874 5872 5870 5868 5866 5865 5863 5861 5858 5855 5853 5852 5851 5850 5851 5851 5852 5854 5857 5859 5862 5864 5867 5869 5871 5873 5875 5876 5877 5878 5879 5879 5879 5879 5879 5879 5879 5880 5880 5880 5880 5880 5880
5877 5876 5876 5875 5874 5873 5872 5870 5868 5866 5865 5863 5861 5858 5856 5852 5850 5848 5847 5846 5846 5847 5848 5850 5853 5856 5859 5861 5864 5867 5869 5871 5873 5874 5875 5876 5877 5878 5878 5878 5878 5879 5879 5879 5879 5880 5880 5880 5879
5875 5875 5874 5874 5873 5872 5871 5869 5867 5865 5863 5861 5858 5856 5853 5849 5846 5844 5842 5841 5841 5842 5843 5846 5849 5852 5855 5859 5862 5864 5867 5869 5871 5872 5873 5874 5876 5876 5877 5877 5877 5878 5878 5878 5878 5879 5879 5879 5879
5873 5873 5872 5872 5871 5870 5869 5867 5865 5863 5861 5859 5856 5853 5850 5846 5843 5840 5839 5837 5837 5837 5838 5841 5845 5848 5851 5855 5859 5862 5865 5867 5869 5871 5872 5873 5874 5875 5876 5876 5877 5877 5877 5877 5878 5878 5878 5878 5878
5871 5871 5871 5870 5869 5868 5867 5866 5864 5861 5859 5856 5853 5851 5847 5844 5841 5838 5835 5833 5833 5834 5836 5839 5841 5845 5848 5852 5856 5859 5862 5865 5867 5869 5870 5872 5873 5874 5875 5875 5876 5876 5876 5877 5877 5877 5878 5878 5878
5869 5869 5869 5868 5867 5866 5866 5864 5862 5859 5857 5854 5851 5848 5844 5841 5837 5834 5832 5831 5831 5831 5833 5836 5839 5843 5846 5850 5853 5857 5860 5862 5865 5867 5869 5870 5872 5873 5874 5874 5875 5876 5876 5876 5876 5877 5877 5877 5877
5866 5866 5866 5866 5865 5864 5863 5861 5860 5857 5855 5852 5848 5845 5842 5838 5834 5831 5830 5828 5828 5829 5831 5833 5836 5840 5844 5847 5851 5854 5857 5860 5863 5866 5867 5869 5871 5872 5873 5874 5875 5875 5875 5876 5876 5877 5877 5877 5877
5863 5863 5863 5863 5863 5862 5860 5858 5857 5855 5852 5849 5846 5842 5839 5836 5832 5829 5827 5826 5827 5828 5829 5831 5834 5838 5841 5844 5848 5852 5855 5859 5861 5864 5866 5868 5869 5871 5872 5873 5874 5875 5875 5876 5876 5876 5876 5877 5877
5860 5861 5861 5861 5859 5858 5857 5856 5854 5852 5849 5846 5844 5840 5838 5835 5831 5828 5825 5825 5826 5827 5828 5830 5833 5835 5839 5842 5846 5850 5854 5857 5860 5862 5865 5867 5868 5870 5871 5873 5874 5874 5875 5875 5876 5876 5876 5876 5877
5857 5858 5858 5858 5856 5855 5854 5853 5852 5849 5846 5844 5841 5838 5836 5833 5830 5827 5825 5824 5825 5826 5827 5828 5831 5834 5837 5842 5845 5849 5852 5856 5859 5861 5863 5865 5867 5869 5870 5872 5873 5874 5875 5875 5875 5876 5876 5876 5876
5854 5855 5855 5855 5854 5853 5852 5852 5849 5847 5844 5841 5839 5836 5834 5832 5829 5827 5825 5824 5824 5824 5825 5826 5828 5832 5836 5840 5844 5847 5851 5854 5857 5860 5862 5864 5866 5868 5869 5871 5872 5873 5874 5875 5875 5875 5876 5876 5876
5851 5852 5851 5851 5851 5850 5850 5849 5848 5844 5841 5839 5836 5834 5832 5830 5828 5826 5825 5823 5822 5822 5823 5825 5827 5830 5834 5838 5842 5846 5849 5853 5855 5858 5860 5862 5864 5866 5868 5870 5871 5872 5873 5874 5875 5875 5876 5876 5876
5848 5848 5848 5848 5848 5848 5848 5846 5846 5842 5839 5837 5835 5833 5831 5829 5827 5826 5824 5823 5822 5821 5822 5824 5826 5829 5833 5836 5840 5844 5847 5851 5854 5856 5859 5861 5863 5865 5867 5869 5870 5871 5873 5874 5874 5875 5875 5876 5876
5844 5845 5846 5846 5846 5846 5846 5844 5844 5840 5838 5835 5833 5832 5830 5828 5827 5826 5824 5823 5822 5821 5822 5823 5825 5828 5832 5835 5839 5843 5846 5849 5852 5854 5857 5860 5862 5864 5866 5868 5869 5870 5872 5873 5874 5874 5875 5875 5875
5841 5842 5843 5843 5843 5843 5843 5842 5842 5839 5837 5834 5833 5831 5830 5828 5826 5825 5824 5823 5822 5822 5822 5823 5825 5828 5831 5834 5837 5841 5844 5847 5850 5853 5855 5858 5860 5863 5864 5866 5868 5869 5870 5871 5872 5873 5874 5874 5874
5836 5838 5839 5840 5840 5840 5840 5839 5840 5838 5836 5834 5832 5831 5830 5828 5827 5825 5824 5823 5823 5823 5823 5823 5825 5828 5830 5833 5836 5839 5843 5846 5848 5851 5854 5856 5859 5861 5862 5864 5866 5867 5868 5869 5870 5871 5872 5872 5872
5832 5834 5835 5836 5836 5836 5837 5838 5838 5836 5834 5833 5831 5830 5829 5828 5827 5826 5825 5824 5824 5824 5824 5824 5826 5828 5830 5833 5836 5838 5841 5844 5847 5849 5852 5854 5856 5858 5860 5861 5863 5864 5866 5867 5868 5868 5869 5869 5870
5828 5829 5831 5831 5832 5832 5833 5834 5835 5834 5832 5831 5830 5829 5828 5828 5827 5826 5825 5824 5824 5824 5825 5825 5827 5828 5830 5832 5834 5837 5839 5842 5844 5847 5849 5851 5853 5855 5857 5859 5860 5861 5863 5864 5864 5865 5866 5866 5866
5824 5825 5826 5827 5828 5828 5829 5833 5832 5831 5830 5829 5829 5828 5827 5826 5826 5825 5824 5824 5824 5824 5825 5825 5827 5828 5830 5832 5833 5835 5837 5839 5842 5844 5847 5849 5851 5852 5854 5855 5856 5858 5859 5860 5860 5861 5862 5862 5862
5818 5820 5821 5823 5824 5824 5825 5831 5829 5828 5827 5827 5827 5826 5825 5825 5824 5824 5824 5824 5824 5824 5825 5825 5826 5827 5829 5831 5832 5834 5835 5837 5839 5841 5843 5846 5848 5849 5850 5851 5852 5854 5854 5855 5856 5856 5857 5857 5857